| time (UTC) | temp C | wind direction | speed KPH | gust KPH | rain 1hr cm | rain 24hr cm | rain mn cm | humidity % | barometer mb |
| 20260905171503 | 29 | 190 | 25.7 | 41.8 | 0.00 | 0.00 | 0.00 | 15 | 1023.5 |
| 20260905170503 | 29 | 190 | 24.1 | 35.4 | 0.00 | 0.00 | 0.00 | 11 | 1023.3 |
| 20260905170003 | 29 | 187 | 22.5 | 37.0 | 0.00 | 0.00 | 0.00 | 11 | 1023.3 |
| 20260905165003 | 28 | 189 | 16.1 | 27.4 | 0.00 | 0.00 | 0.00 | 9 | 1023.4 |
| 20260905164503 | 28 | 193 | 16.1 | 25.7 | 0.00 | 0.00 | 0.00 | 9 | 1023.5 |
| 20260905164003 | 28 | 215 | 16.1 | 32.2 | 0.00 | 0.00 | 0.00 | 10 | 1023.4 |
| 20260905163503 | 28 | 209 | 9.7 | 24.1 | 0.00 | 0.00 | 0.00 | 11 | 1023.5 |
| 20260905163003 | 27 | 216 | 9.7 | 19.3 | 0.00 | 0.00 | 0.00 | 11 | 1023.5 |
| 20260905162504 | 26 | 123 | 6.4 | 19.3 | 0.00 | 0.00 | 0.00 | 21 | 1023.5 |
| 20260905162004 | 26 | 33 | 0.0 | 4.8 | 0.00 | 0.00 | 0.00 | 22 | 1023.6 |
| 20260905161004 | 25 | 35 | 0.0 | 1.6 | 0.00 | 0.00 | 0.00 | 22 | 1023.5 |
| 20260905160504 | 25 | 75 | 0.0 | 3.2 | 0.00 | 0.00 | 0.00 | 24 | 1023.4 |
| 20260905160003 | 24 | 39 | 1.6 | 4.8 | 0.00 | 0.00 | 0.00 | 24 | 1023.5 |
| 20260905155504 | 24 | 22 | 3.2 | 8.0 | 0.00 | 0.00 | 0.00 | 26 | 1023.4 |
| 20260905155004 | 24 | 33 | 3.2 | 8.0 | 0.00 | 0.00 | 0.00 | 27 | 1023.4 |
| 20260905154503 | 24 | 44 | 3.2 | 12.9 | 0.00 | 0.00 | 0.00 | 27 | 1023.5 |
| 20260905154003 | 24 | 29 | 1.6 | 4.8 | 0.00 | 0.00 | 0.00 | 26 | 1023.5 |
| 20260905153003 | 23 | 37 | 0.0 | 1.6 | 0.00 | 0.00 | 0.00 | 27 | 1023.5 |
| 20260905152504 | 23 | 28 | 0.0 | 0.0 | 0.00 | 0.00 | 0.00 | 27 | 1023.5 |
| 20260905152004 | 23 | 265 | 0.0 | 0.0 | 0.00 | 0.00 | 0.00 | 26 | 1023.5 |
| 20260905151503 | 23 | 247 | 0.0 | 0.0 | 0.00 | 0.00 | 0.00 | 26 | 1023.5 |
| 20260905151004 | 23 | 229 | 0.0 | 0.0 | 0.00 | 0.00 | 0.00 | 26 | 1023.5 |
| 20260905150503 | 22 | 229 | 0.0 | 0.0 | 0.00 | 0.00 | 0.00 | 27 | 1023.5 |
| 20260905150003 | 22 | 229 | 0.0 | 0.0 | 0.00 | 0.00 | 0.00 | 26 | 1023.3 |
| 20260905145504 | 21 | 229 | 0.0 | 0.0 | 0.00 | 0.00 | 0.00 | 25 | 1023.3 |
| 20260905145005 | 21 | 229 | 0.0 | 0.0 | 0.00 | 0.00 | 0.00 | 25 | 1023.2 |
| 20260905144503 | 21 | 229 | 0.0 | 0.0 | 0.00 | 0.00 | 0.00 | 26 | 1023.3 |
| 20260905144004 | 21 | 229 | 0.0 | 0.0 | 0.00 | 0.00 | 0.00 | 26 | 1023.2 |
| 20260905143503 | 21 | 229 | 0.0 | 0.0 | 0.00 | 0.00 | 0.00 | 26 | 1023.2 |
| 20260905143004 | 20 | 224 | 0.0 | 0.0 | 0.00 | 0.00 | 0.00 | 29 | 1023.3 |
| 20260905142503 | 20 | 223 | 0.0 | 3.2 | 0.00 | 0.00 | 0.00 | 30 | 1023.2 |
| 20260905142003 | 19 | 209 | 0.0 | 0.0 | 0.00 | 0.00 | 0.00 | 33 | 1023.1 |
| 20260905141004 | 18 | 221 | 0.0 | 0.0 | 0.00 | 0.00 | 0.00 | 32 | 1023.0 |
| 20260905140504 | 17 | 221 | 0.0 | 0.0 | 0.00 | 0.00 | 0.00 | 33 | 1023.1 |
| 20260905140003 | 17 | 227 | 0.0 | 0.0 | 0.00 | 0.00 | 0.00 | 35 | 1023.1 |
| 20260905135504 | 16 | 227 | 0.0 | 0.0 | 0.00 | 0.00 | 0.00 | 36 | 1022.7 |
| 20260905135005 | 16 | 227 | 0.0 | 0.0 | 0.00 | 0.00 | 0.00 | 37 | 1022.6 |
| 20260905134503 | 16 | 227 | 0.0 | 0.0 | 0.00 | 0.00 | 0.00 | 37 | 1022.6 |
| 20260905134003 | 16 | 227 | 0.0 | 0.0 | 0.00 | 0.00 | 0.00 | 37 | 1022.5 |
| 20260905133504 | 15 | 234 | 0.0 | 0.0 | 0.00 | 0.00 | 0.00 | 38 | 1022.4 |
| 20260905133003 | 15 | 236 | 0.0 | 0.0 | 0.00 | 0.00 | 0.00 | 38 | 1022.3 |
| 20260905132504 | 15 | 236 | 0.0 | 0.0 | 0.00 | 0.00 | 0.00 | 39 | 1022.3 |
| 20260905131503 | 15 | 236 | 0.0 | 0.0 | 0.00 | 0.00 | 0.00 | 38 | 1022.3 |
| 20260905131004 | 15 | 236 | 0.0 | 0.0 | 0.00 | 0.00 | 0.00 | 38 | 1022.1 |
| 20260905130503 | 15 | 236 | 0.0 | 0.0 | 0.00 | 0.00 | 0.00 | 38 | 1022.1 |
| 20260905130004 | 15 | 236 | 0.0 | 0.0 | 0.00 | 0.00 | 0.00 | 38 | 1022.2 |
| 20260905125504 | 15 | 242 | 0.0 | 0.0 | 0.00 | 0.00 | 0.00 | 39 | 1022.1 |
| 20260905125003 | 15 | 220 | 0.0 | 0.0 | 0.00 | 0.00 | 0.00 | 39 | 1022.2 |
| 20260905124504 | 15 | 220 | 0.0 | 0.0 | 0.00 | 0.00 | 0.00 | 39 | 1022.1 |
| 20260905124003 | 16 | 218 | 0.0 | 0.0 | 0.00 | 0.00 | 0.00 | 39 | 1022.1 |
| 20260905123503 | 16 | 217 | 0.0 | 0.0 | 0.00 | 0.00 | 0.00 | 39 | 1022.1 |
| 20260905123004 | 16 | 217 | 0.0 | 0.0 | 0.00 | 0.00 | 0.00 | 39 | 1022.0 |
| 20260905122504 | 16 | 239 | 0.0 | 0.0 | 0.00 | 0.00 | 0.00 | 40 | 1022.0 |
| 20260905122003 | 15 | 239 | 0.0 | 0.0 | 0.00 | 0.00 | 0.00 | 41 | 1022.0 |
| 20260905121504 | 15 | 235 | 0.0 | 0.0 | 0.00 | 0.00 | 0.00 | 40 | 1021.9 |
| 20260905121004 | 15 | 238 | 0.0 | 0.0 | 0.00 | 0.00 | 0.00 | 41 | 1021.9 |
| 20260905120503 | 15 | 227 | 0.0 | 0.0 | 0.00 | 0.00 | 0.00 | 42 | 1021.9 |
| 20260905120003 | 15 | 244 | 0.0 | 0.0 | 0.00 | 0.00 | 0.00 | 41 | 1022.0 |
| 20260905115504 | 15 | 250 | 0.0 | 0.0 | 0.00 | 0.00 | 0.00 | 41 | 1022.0 |
| 20260905115004 | 15 | 250 | 0.0 | 0.0 | 0.00 | 0.00 | 0.00 | 41 | 1021.9 |
| 20260905114504 | 15 | 250 | 0.0 | 0.0 | 0.00 | 0.00 | 0.00 | 41 | 1021.9 |
| 20260905114003 | 15 | 255 | 0.0 | 0.0 | 0.00 | 0.00 | 0.00 | 40 | 1022.0 |
| 20260905113504 | 16 | 255 | 0.0 | 0.0 | 0.00 | 0.00 | 0.00 | 40 | 1022.1 |
| 20260905112504 | 15 | 255 | 0.0 | 0.0 | 0.00 | 0.00 | 0.00 | 41 | 1022.0 |
| 20260905112003 | 15 | 255 | 0.0 | 0.0 | 0.00 | 0.00 | 0.00 | 41 | 1021.7 |
| 20260905111504 | 15 | 248 | 0.0 | 0.0 | 0.00 | 0.00 | 0.00 | 42 | 1021.8 |
| 20260905111003 | 15 | 217 | 0.0 | 0.0 | 0.00 | 0.00 | 0.00 | 41 | 1021.7 |
| 20260905110503 | 15 | 209 | 0.0 | 0.0 | 0.00 | 0.00 | 0.00 | 42 | 1021.7 |
| 20260905105503 | 15 | 209 | 0.0 | 0.0 | 0.00 | 0.00 | 0.00 | 39 | 1021.9 |
| 20260905105004 | 16 | 209 | 0.0 | 0.0 | 0.00 | 0.00 | 0.00 | 38 | 1021.9 |
| 20260905104004 | 15 | 209 | 0.0 | 0.0 | 0.00 | 0.00 | 0.00 | 39 | 1021.9 |
| 20260905103504 | 15 | 229 | 0.0 | 0.0 | 0.00 | 0.00 | 0.00 | 39 | 1021.9 |
| 20260905103003 | 15 | 229 | 0.0 | 0.0 | 0.00 | 0.00 | 0.00 | 38 | 1021.8 |
| 20260905102504 | 15 | 229 | 0.0 | 0.0 | 0.00 | 0.00 | 0.00 | 38 | 1021.8 |
| 20260905102003 | 16 | 229 | 0.0 | 0.0 | 0.00 | 0.00 | 0.00 | 37 | 1021.8 |
| 20260905101003 | 16 | 237 | 0.0 | 0.0 | 0.00 | 0.00 | 0.00 | 37 | 1021.7 |
| 20260905100503 | 16 | 243 | 0.0 | 0.0 | 0.00 | 0.00 | 0.00 | 37 | 1021.8 |
| 20260905100004 | 16 | 244 | 0.0 | 0.0 | 0.00 | 0.00 | 0.00 | 37 | 1021.6 |
| 20260905095004 | 16 | 244 | 0.0 | 0.0 | 0.00 | 0.00 | 0.00 | 36 | 1021.6 |
| 20260905094503 | 16 | 244 | 0.0 | 0.0 | 0.00 | 0.00 | 0.00 | 36 | 1021.6 |
| 20260905094004 | 16 | 233 | 0.0 | 0.0 | 0.00 | 0.00 | 0.00 | 36 | 1021.6 |
| 20260905093003 | 16 | 257 | 0.0 | 1.6 | 0.00 | 0.00 | 0.00 | 35 | 1021.6 |
| 20260905092504 | 17 | 260 | 0.0 | 0.0 | 0.00 | 0.00 | 0.00 | 34 | 1021.7 |
| 20260905092004 | 17 | 246 | 0.0 | 0.0 | 0.00 | 0.00 | 0.00 | 34 | 1021.6 |
| 20260905091503 | 17 | 245 | 0.0 | 0.0 | 0.00 | 0.00 | 0.00 | 34 | 1021.7 |
| 20260905091003 | 17 | 244 | 0.0 | 0.0 | 0.00 | 0.00 | 0.00 | 35 | 1021.7 |
| 20260905090503 | 17 | 243 | 0.0 | 3.2 | 0.00 | 0.00 | 0.00 | 34 | 1021.7 |
| 20260905090004 | 17 | 242 | 0.0 | 0.0 | 0.00 | 0.00 | 0.00 | 34 | 1021.9 |
| 20260905085505 | 17 | 242 | 0.0 | 0.0 | 0.00 | 0.00 | 0.00 | 34 | 1021.9 |
| 20260905085003 | 18 | 248 | 0.0 | 0.0 | 0.00 | 0.00 | 0.00 | 33 | 1021.9 |
| 20260905084504 | 18 | 256 | 0.0 | 0.0 | 0.00 | 0.00 | 0.00 | 33 | 1021.9 |
| 20260905084003 | 18 | 266 | 0.0 | 0.0 | 0.00 | 0.00 | 0.00 | 33 | 1021.9 |
| 20260905083504 | 18 | 267 | 0.0 | 0.0 | 0.00 | 0.00 | 0.00 | 34 | 1021.8 |
| 20260905083004 | 18 | 291 | 0.0 | 1.6 | 0.00 | 0.00 | 0.00 | 33 | 1021.9 |
| 20260905082503 | 18 | 240 | 0.0 | 3.2 | 0.00 | 0.00 | 0.00 | 33 | 1022.0 |
| 20260905082004 | 18 | 224 | 1.6 | 4.8 | 0.00 | 0.00 | 0.00 | 33 | 1021.9 |
| 20260905081003 | 18 | 194 | 0.0 | 1.6 | 0.00 | 0.00 | 0.00 | 33 | 1021.9 |
| 20260905075504 | 20 | 227 | 0.0 | 3.2 | 0.00 | 0.00 | 0.00 | 32 | 1021.9 |
| 20260905075004 | 20 | 227 | 0.0 | 4.8 | 0.00 | 0.00 | 0.00 | 32 | 1021.8 |
| 20260905074004 | 21 | 212 | 1.6 | 4.8 | 0.00 | 0.00 | 0.00 | 31 | 1021.9 |
| 20260905073503 | 21 | 223 | 3.2 | 8.0 | 0.00 | 0.00 | 0.00 | 30 | 1021.7 |
| 20260905073004 | 21 | 222 | 1.6 | 8.0 | 0.00 | 0.00 | 0.00 | 30 | 1021.7 |
| 20260905072504 | 21 | 218 | 1.6 | 8.0 | 0.00 | 0.00 | 0.00 | 30 | 1021.7 |
| 20260905072004 | 21 | 226 | 1.6 | 4.8 | 0.00 | 0.00 | 0.00 | 30 | 1021.7 |
| 20260905071504 | 21 | 228 | 1.6 | 4.8 | 0.00 | 0.00 | 0.00 | 30 | 1021.7 |
| 20260905071004 | 21 | 225 | 1.6 | 4.8 | 0.00 | 0.00 | 0.00 | 30 | 1021.7 |
| 20260905070003 | 21 | 230 | 1.6 | 8.0 | 0.00 | 0.00 | 0.00 | 30 | 1021.7 |
| 20260905065504 | 22 | 233 | 1.6 | 4.8 | 0.00 | 0.00 | 0.00 | 30 | 1021.7 |
| 20260905065004 | 22 | 227 | 6.4 | 14.5 | 0.00 | 0.00 | 0.00 | 30 | 1021.6 |
| 20260905064504 | 22 | 232 | 1.6 | 8.0 | 0.00 | 0.00 | 0.00 | 30 | 1021.6 |
| 20260905064004 | 22 | 219 | 0.0 | 4.8 | 0.00 | 0.00 | 0.00 | 29 | 1021.6 |
| 20260905063504 | 22 | 222 | 0.0 | 4.8 | 0.00 | 0.00 | 0.00 | 29 | 1021.6 |
| 20260905063006 | 22 | 218 | 4.8 | 12.9 | 0.00 | 0.00 | 0.00 | 29 | 1021.5 |
| 20260905062504 | 22 | 224 | 1.6 | 8.0 | 0.00 | 0.00 | 0.00 | 28 | 1021.5 |
| 20260905062004 | 22 | 219 | 1.6 | 12.9 | 0.00 | 0.00 | 0.00 | 28 | 1021.5 |
| 20260905061004 | 22 | 223 | 4.8 | 16.1 | 0.00 | 0.00 | 0.00 | 28 | 1021.4 |
| 20260905060503 | 23 | 220 | 8.0 | 19.3 | 0.00 | 0.00 | 0.00 | 28 | 1021.4 |
| 20260905060003 | 22 | 225 | 6.4 | 19.3 | 0.00 | 0.00 | 0.00 | 28 | 1021.4 |
| 20260905055503 | 22 | 213 | 6.4 | 19.3 | 0.00 | 0.00 | 0.00 | 28 | 1021.4 |
| 20260905055005 | 22 | 212 | 9.7 | 16.1 | 0.00 | 0.00 | 0.00 | 27 | 1021.3 |
| 20260905054503 | 22 | 202 | 6.4 | 12.9 | 0.00 | 0.00 | 0.00 | 27 | 1021.3 |
| 20260905052504 | 22 | 194 | 9.7 | 16.1 | 0.00 | 0.00 | 0.00 | 25 | 1021.5 |
| 20260905052004 | 23 | 186 | 4.8 | 9.7 | 0.00 | 0.00 | 0.00 | 24 | 1021.5 |
| 20260905051504 | 23 | 183 | 1.6 | 9.7 | 0.00 | 0.00 | 0.00 | 24 | 1021.5 |
| 20260905051003 | 23 | 191 | 4.8 | 9.7 | 0.00 | 0.00 | 0.00 | 24 | 1021.5 |
| 20260905050503 | 23 | 205 | 1.6 | 4.8 | 0.00 | 0.00 | 0.00 | 24 | 1021.5 |
| 20260905050003 | 23 | 247 | 0.0 | 8.0 | 0.00 | 0.00 | 0.00 | 24 | 1021.5 |
| 20260905045504 | 23 | 211 | 1.6 | 9.7 | 0.00 | 0.00 | 0.00 | 24 | 1021.4 |
| 20260905043004 | 24 | 207 | 8.0 | 14.5 | 0.00 | 0.00 | 0.00 | 24 | 1021.0 |
| 20260905042503 | 23 | 207 | 11.3 | 20.9 | 0.00 | 0.00 | 0.00 | 24 | 1021.0 |
| 20260905042003 | 23 | 206 | 6.4 | 16.1 | 0.00 | 0.00 | 0.00 | 24 | 1020.9 |
| 20260905041503 | 23 | 201 | 6.4 | 16.1 | 0.00 | 0.00 | 0.00 | 24 | 1020.9 |
| 20260905041004 | 23 | 192 | 11.3 | 22.5 | 0.00 | 0.00 | 0.00 | 25 | 1020.9 |
| 20260905040504 | 23 | 198 | 4.8 | 16.1 | 0.00 | 0.00 | 0.00 | 25 | 1020.9 |
| 20260905040004 | 23 | 196 | 6.4 | 12.9 | 0.00 | 0.00 | 0.00 | 26 | 1020.9 |
| 20260905035503 | 23 | 188 | 3.2 | 12.9 | 0.00 | 0.00 | 0.00 | 26 | 1020.8 |
| 20260905035004 | 23 | 192 | 0.0 | 1.6 | 0.00 | 0.00 | 0.00 | 27 | 1020.9 |
| 20260905034504 | 23 | 161 | 1.6 | 9.7 | 0.00 | 0.00 | 0.00 | 27 | 1020.8 |
| 20260905034004 | 23 | 164 | 1.6 | 8.0 | 0.00 | 0.00 | 0.00 | 27 | 1020.7 |
| 20260905033504 | 23 | 178 | 0.0 | 0.0 | 0.00 | 0.00 | 0.00 | 26 | 1020.6 |
| 20260905033003 | 24 | 172 | 0.0 | 1.6 | 0.00 | 0.00 | 0.00 | 26 | 1020.5 |
| 20260905032504 | 24 | 181 | 3.2 | 4.8 | 0.00 | 0.00 | 0.00 | 25 | 1020.5 |
| 20260905032003 | 25 | 188 | 4.8 | 11.3 | 0.00 | 0.00 | 0.00 | 24 | 1020.3 |
| 20260905031505 | 25 | 207 | 4.8 | 19.3 | 0.00 | 0.00 | 0.00 | 23 | 1020.2 |
| 20260905030504 | 25 | 214 | 4.8 | 14.5 | 0.00 | 0.00 | 0.00 | 23 | 1019.9 |
| 20260905030004 | 25 | 223 | 4.8 | 19.3 | 0.00 | 0.00 | 0.00 | 23 | 1019.9 |
| 20260905025504 | 25 | 220 | 6.4 | 14.5 | 0.00 | 0.00 | 0.00 | 23 | 1019.8 |
| 20260905025004 | 25 | 222 | 4.8 | 19.3 | 0.00 | 0.00 | 0.00 | 22 | 1019.7 |
| 20260905024503 | 25 | 228 | 4.8 | 14.5 | 0.00 | 0.00 | 0.00 | 22 | 1019.7 |
| 20260905024003 | 25 | 218 | 8.0 | 22.5 | 0.00 | 0.00 | 0.00 | 23 | 1019.6 |
| 20260905023504 | 26 | 226 | 9.7 | 29.0 | 0.00 | 0.00 | 0.00 | 22 | 1019.6 |
| 20260905023003 | 26 | 234 | 12.9 | 22.5 | 0.00 | 0.00 | 0.00 | 21 | 1019.6 |
| 20260905022504 | 26 | 218 | 9.7 | 24.1 | 0.00 | 0.00 | 0.00 | 22 | 1019.7 |
| 20260905022004 | 26 | 224 | 16.1 | 25.7 | 0.00 | 0.00 | 0.00 | 21 | 1019.7 |
| 20260905021504 | 26 | 217 | 11.3 | 29.0 | 0.00 | 0.00 | 0.00 | 21 | 1019.6 |
| 20260905021003 | 26 | 219 | 16.1 | 27.4 | 0.00 | 0.00 | 0.00 | 21 | 1019.7 |
| 20260905020503 | 26 | 241 | 9.7 | 29.0 | 0.00 | 0.00 | 0.00 | 21 | 1019.7 |
| 20260905020003 | 26 | 222 | 14.5 | 29.0 | 0.00 | 0.00 | 0.00 | 21 | 1019.6 |
| 20260905015005 | 27 | 229 | 14.5 | 27.4 | 0.00 | 0.00 | 0.00 | 19 | 1019.7 |
| 20260905014504 | 27 | 209 | 11.3 | 29.0 | 0.00 | 0.00 | 0.00 | 19 | 1019.6 |
| 20260905014005 | 27 | 232 | 20.9 | 37.0 | 0.00 | 0.00 | 0.00 | 18 | 1019.6 |
| 20260905013503 | 27 | 219 | 16.1 | 33.8 | 0.00 | 0.00 | 0.00 | 18 | 1019.6 |
| 20260905013003 | 27 | 233 | 20.9 | 33.8 | 0.00 | 0.00 | 0.00 | 18 | 1019.6 |
| 20260905012503 | 27 | 197 | 16.1 | 29.0 | 0.00 | 0.00 | 0.00 | 17 | 1019.8 |
| 20260905011503 | 27 | 223 | 20.9 | 35.4 | 0.00 | 0.00 | 0.00 | 17 | 1019.8 |
| 20260905011004 | 28 | 221 | 16.1 | 27.4 | 0.00 | 0.00 | 0.00 | 17 | 1019.7 |
| 20260905010504 | 28 | 226 | 20.9 | 32.2 | 0.00 | 0.00 | 0.00 | 16 | 1019.8 |
| 20260905010004 | 28 | 224 | 14.5 | 32.2 | 0.00 | 0.00 | 0.00 | 16 | 1019.7 |
| 20260905005505 | 28 | 233 | 20.9 | 29.0 | 0.00 | 0.00 | 0.00 | 16 | 1019.9 |
| 20260905005004 | 28 | 217 | 16.1 | 32.2 | 0.00 | 0.00 | 0.00 | 16 | 1019.7 |
| 20260905004503 | 28 | 207 | 14.5 | 32.2 | 0.00 | 0.00 | 0.00 | 16 | 1019.8 |
| 20260905004004 | 29 | 226 | 20.9 | 37.0 | 0.00 | 0.00 | 0.00 | 15 | 1019.8 |
| 20260905003504 | 29 | 211 | 17.7 | 33.8 | 0.00 | 0.00 | 0.00 | 15 | 1019.7 |
| 20260905003004 | 30 | 208 | 12.9 | 27.4 | 0.00 | 0.00 | 0.00 | 14 | 1019.8 |
| 20260905002504 | 29 | 213 | 19.3 | 32.2 | 0.00 | 0.00 | 0.00 | 14 | 1019.8 |
| 20260905001503 | 30 | 213 | 19.3 | 32.2 | 0.00 | 0.00 | 0.00 | 15 | 1019.7 |
| 20260905001003 | 30 | 222 | 20.9 | 32.2 | 0.00 | 0.00 | 0.00 | 14 | 1019.9 |
| 20260905000004 | 30 | 207 | 20.9 | 33.8 | 0.00 | 0.00 | 0.00 | 15 | 1019.6 |
| 20260904235504 | 30 | 208 | 25.7 | 38.6 | 0.00 | 0.00 | 0.00 | 14 | 1019.7 |
| 20260904235004 | 30 | 197 | 19.3 | 29.0 | 0.00 | 0.00 | 0.00 | 14 | 1019.8 |
| 20260904234504 | 30 | 209 | 20.9 | 38.6 | 0.00 | 0.00 | 0.00 | 14 | 1019.8 |
| 20260904234004 | 30 | 194 | 20.9 | 46.7 | 0.00 | 0.00 | 0.00 | 14 | 1019.7 |
| 20260904233503 | 30 | 203 | 24.1 | 37.0 | 0.00 | 0.00 | 0.00 | 14 | 1019.7 |
| 20260904233003 | 30 | 215 | 24.1 | 38.6 | 0.00 | 0.00 | 0.00 | 14 | 1019.8 |
| 20260904232503 | 30 | 231 | 19.3 | 35.4 | 0.00 | 0.00 | 0.00 | 14 | 1019.6 |
| 20260904232003 | 30 | 185 | 22.5 | 32.2 | 0.00 | 0.00 | 0.00 | 13 | 1019.8 |
| 20260904231503 | 30 | 206 | 16.1 | 32.2 | 0.00 | 0.00 | 0.00 | 13 | 1019.9 |
| 20260904231004 | 30 | 206 | 20.9 | 35.4 | 0.00 | 0.00 | 0.00 | 13 | 1019.9 |
| 20260904230504 | 30 | 199 | 19.3 | 45.1 | 0.00 | 0.00 | 0.00 | 13 | 1019.9 |
| 20260904230003 | 30 | 199 | 16.1 | 38.6 | 0.00 | 0.00 | 0.00 | 13 | 1020.0 |
| 20260904225504 | 30 | 198 | 22.5 | 40.2 | 0.00 | 0.00 | 0.00 | 13 | 1020.0 |
| 20260904225004 | 30 | 186 | 27.4 | 41.8 | 0.00 | 0.00 | 0.00 | 12 | 1020.0 |
| 20260904224504 | 30 | 192 | 25.7 | 40.2 | 0.00 | 0.00 | 0.00 | 12 | 1020.1 |
| 20260904224003 | 30 | 184 | 25.7 | 41.8 | 0.00 | 0.00 | 0.00 | 12 | 1020.1 |
| 20260904223504 | 30 | 202 | 27.4 | 38.6 | 0.00 | 0.00 | 0.00 | 13 | 1020.2 |
| 20260904223005 | 30 | 192 | 29.0 | 41.8 | 0.00 | 0.00 | 0.00 | 13 | 1020.2 |
| 20260904222504 | 30 | 195 | 25.7 | 45.1 | 0.00 | 0.00 | 0.00 | 14 | 1020.2 |
| 20260904222004 | 30 | 199 | 25.7 | 35.4 | 0.00 | 0.00 | 0.00 | 13 | 1020.2 |
| 20260904221505 | 30 | 214 | 22.5 | 37.0 | 0.00 | 0.00 | 0.00 | 12 | 1020.2 |
| 20260904221004 | 30 | 203 | 25.7 | 41.8 | 0.00 | 0.00 | 0.00 | 13 | 1020.3 |
| 20260904220503 | 30 | 193 | 25.7 | 37.0 | 0.00 | 0.00 | 0.00 | 14 | 1020.3 |
| 20260904220003 | 30 | 202 | 27.4 | 40.2 | 0.00 | 0.00 | 0.00 | 14 | 1020.4 |
| 20260904215503 | 30 | 195 | 22.5 | 33.8 | 0.00 | 0.00 | 0.00 | 14 | 1020.4 |
| 20260904214504 | 30 | 207 | 20.9 | 33.8 | 0.00 | 0.00 | 0.00 | 15 | 1020.5 |
| 20260904214003 | 30 | 202 | 17.7 | 29.0 | 0.00 | 0.00 | 0.00 | 16 | 1020.5 |
| 20260904213504 | 30 | 197 | 20.9 | 32.2 | 0.00 | 0.00 | 0.00 | 16 | 1020.6 |
| 20260904213004 | 30 | 201 | 16.1 | 38.6 | 0.00 | 0.00 | 0.00 | 17 | 1020.6 |
| 20260904212504 | 30 | 193 | 17.7 | 27.4 | 0.00 | 0.00 | 0.00 | 16 | 1020.7 |
| 20260904212003 | 30 | 192 | 22.5 | 32.2 | 0.00 | 0.00 | 0.00 | 17 | 1020.6 |
| 20260904211504 | 30 | 210 | 19.3 | 45.1 | 0.00 | 0.00 | 0.00 | 16 | 1020.6 |
| 20260904211003 | 30 | 183 | 19.3 | 27.4 | 0.00 | 0.00 | 0.00 | 17 | 1020.7 |
| 20260904210503 | 30 | 223 | 19.3 | 29.0 | 0.00 | 0.00 | 0.00 | 17 | 1020.6 |
| 20260904205005 | 30 | 205 | 20.9 | 35.4 | 0.00 | 0.00 | 0.00 | 16 | 1020.7 |
| 20260904203504 | 30 | 208 | 20.9 | 32.2 | 0.00 | 0.00 | 0.00 | 17 | 1020.7 |
| 20260904203003 | 30 | 206 | 22.5 | 35.4 | 0.00 | 0.00 | 0.00 | 16 | 1020.8 |
| 20260904202504 | 30 | 193 | 22.5 | 32.2 | 0.00 | 0.00 | 0.00 | 17 | 1020.8 |
| 20260904202003 | 29 | 199 | 24.1 | 33.8 | 0.00 | 0.00 | 0.00 | 16 | 1020.8 |
| 20260904201503 | 29 | 192 | 25.7 | 35.4 | 0.00 | 0.00 | 0.00 | 17 | 1020.8 |
| 20260904201004 | 29 | 203 | 20.9 | 32.2 | 0.00 | 0.00 | 0.00 | 18 | 1021.0 |
| 20260904200503 | 29 | 208 | 20.9 | 33.8 | 0.00 | 0.00 | 0.00 | 17 | 1021.1 |
| 20260904200004 | 29 | 199 | 16.1 | 33.8 | 0.00 | 0.00 | 0.00 | 18 | 1021.3 |
| 20260904195504 | 29 | 198 | 19.3 | 32.2 | 0.00 | 0.00 | 0.00 | 18 | 1021.4 |
| 20260904194503 | 28 | 227 | 19.3 | 32.2 | 0.00 | 0.00 | 0.00 | 18 | 1021.4 |
| 20260904194003 | 28 | 201 | 20.9 | 32.2 | 0.00 | 0.00 | 0.00 | 18 | 1021.4 |
| 20260904193504 | 28 | 193 | 17.7 | 29.0 | 0.00 | 0.00 | 0.00 | 18 | 1021.6 |
| 20260904193004 | 28 | 200 | 19.3 | 32.2 | 0.00 | 0.00 | 0.00 | 18 | 1021.5 |
| 20260904192504 | 28 | 213 | 19.3 | 25.7 | 0.00 | 0.00 | 0.00 | 18 | 1021.5 |
| 20260904192005 | 28 | 203 | 19.3 | 32.2 | 0.00 | 0.00 | 0.00 | 18 | 1021.6 |
| 20260904191504 | 28 | 190 | 19.3 | 32.2 | 0.00 | 0.00 | 0.00 | 17 | 1021.6 |
| 20260904191003 | 28 | 204 | 19.3 | 29.0 | 0.00 | 0.00 | 0.00 | 17 | 1021.7 |
| 20260904190004 | 28 | 180 | 19.3 | 33.8 | 0.00 | 0.00 | 0.00 | 18 | 1021.7 |
| 20260904185504 | 28 | 205 | 20.9 | 29.0 | 0.00 | 0.00 | 0.00 | 19 | 1021.8 |
| 20260904185004 | 28 | 202 | 19.3 | 33.8 | 0.00 | 0.00 | 0.00 | 19 | 1021.8 |
| 20260904184004 | 28 | 173 | 19.3 | 32.2 | 0.00 | 0.00 | 0.00 | 19 | 1021.7 |
| 20260904183504 | 28 | 166 | 19.3 | 33.8 | 0.00 | 0.00 | 0.00 | 20 | 1021.7 |
| 20260904183004 | 27 | 185 | 14.5 | 32.2 | 0.00 | 0.00 | 0.00 | 20 | 1021.8 |
| 20260904182504 | 27 | 196 | 19.3 | 29.0 | 0.00 | 0.00 | 0.00 | 20 | 1021.9 |
| 20260904182004 | 27 | 184 | 20.9 | 32.2 | 0.00 | 0.00 | 0.00 | 21 | 1021.9 |
| 20260904181504 | 27 | 176 | 12.9 | 20.9 | 0.00 | 0.00 | 0.00 | 21 | 1022.1 |
| 20260904181004 | 27 | 204 | 16.1 | 27.4 | 0.00 | 0.00 | 0.00 | 21 | 1022.1 |
| 20260904180504 | 27 | 201 | 16.1 | 29.0 | 0.00 | 0.00 | 0.00 | 21 | 1021.9 |
| 20260904180003 | 27 | 206 | 11.3 | 29.0 | 0.00 | 0.00 | 0.00 | 21 | 1022.0 |
| 20260904175503 | 27 | 211 | 17.7 | 24.1 | 0.00 | 0.00 | 0.00 | 21 | 1022.1 |
| 20260904175004 | 27 | 217 | 14.5 | 24.1 | 0.00 | 0.00 | 0.00 | 21 | 1022.1 |
| 20260904174503 | 27 | 235 | 14.5 | 24.1 | 0.00 | 0.00 | 0.00 | 21 | 1022.1 |
| 20260904173504 | 27 | 220 | 14.5 | 22.5 | 0.00 | 0.00 | 0.00 | 21 | 1022.1 |
| 20260904172004 | 27 | 193 | 11.3 | 33.8 | 0.00 | 0.00 | 0.00 | 23 | 1022.0 |